Location: Airlie Beach - Cannonvale QLD, Australia
(20.2768°S, 148.7558°E)
Time: 06:42:22
(UTC+10:00)

Hubble Space Telescope - Pass Details

Date: 03 April 2023
Orbit: 525 x 528 km, 28.5° (Epoch: 31 May)

Event Time Altitude Azimuth Distance (km) Brightness Sun altitude
Exits shadow 05:51:43 - 283° (WNW) 2,093 3.2 -5.7°
Reaches altitude 10° 05:52:34 10° 281° (W) 1,761 2.8 -5.5°
Maximum altitude 05:56:36 63° 199° (SSW) 587 0.9 -4.5°
Drops below altitude 10° 06:00:39 10° 117° (ESE) 1,765 4.5 -3.6°
Sets 06:02:56 0° 114° (ESE) 2,656 5.6 -3.1°
